Regional Weather Roundup
Issued by NWS Kansas City/Pleasant Hill, MO

Home | Current Version | Previous Version | Graphics & Text | Print | Product List | Glossary Off
Versions: 1 2 3 4 5 6 7 8 9 10 11 12 13 14 15 16 17 18 19 20 21 22 23 24 25 26 27

000
ASUS43 KEAX 120910
RWREAX

WEATHER ROUNDUP FOR EASTERN KANSAS AND NORTHWEST MISSOURI
NATIONAL WEATHER SERVICE KANSAS CITY/PLEASANT HILL MO
300 AM CST TUE DEC 12 2017

KSZ040-057-103>105-MOZ028-029-037-043-121000-
...KANSAS CITY METROPOLITAN AREA...

CITY           SKY/WX    TMP DP  RH WIND       PRES   REMARKS
K.C. INTL      CLEAR     27  18  69 N14       30.31R WCI  16
K.C. DOWNTOWN  CLEAR     30  19  63 N13G20    30.32R WCI  20
LEES SUMMIT    CLEAR     28  21  75 N16       30.30R WCI  16
OLATHE - IXD   CLEAR     28  18  66 NW14      30.32R WCI  17
OLATHE - OJC   CLEAR     28  19  69 N14G24    30.30R WCI  17
LAWRENCE       CLEAR     28  19  69 NW12      30.34R WCI  18

$$

MOZ001>008-011>017-020>025-030>033-038>040-044>046-053-054-121000-
...NORTHERN AND CENTRAL MISSOURI...

CITY           SKY/WX    TMP DP  RH WIND       PRES   REMARKS
ST. JOSEPH     CLEAR     25  17  72 N16       30.34R WCI  12
MOSBY          SUNNY     28  19  69 N9        30.31S WCI  20
WHITEMAN AFB   NOT AVBL
CLINTON        CLEAR     28  21  74 N13G20    30.28R WCI  18
SEDALIA        CLEAR     29  21  72 NW21G26   30.27R WCI  16
WARSAW         NOT AVBL
CHILLICOTHE      N/A     23  15  71 NW8       30.31R WCI  14
KIRKSVILLE     PTCLDY    23  19  85 NW10      30.23R WCI  12

$$

MOZ041-047>049-056>058-063>065-088>090-097-121000-
...EASTERN AND SOUTHERN MISSOURI...

CITY           SKY/WX    TMP DP  RH WIND       PRES   REMARKS
ST. LOUIS INTL CLOUDY    38  25  59 NW17G28   30.10R WCI  28
SPIRIT OF STL  CLOUDY    39  27  62 NW17G26   30.12R WCI  30
COLUMBIA       PTCLDY    30  20  66 NW18G30   30.21R WCI  18
JEFFERSON CITY MOCLDY    33  21  61 NW14G23   30.22R WCI  23
ROLLA          CLOUDY    36  27  69 NW14G23   30.15R WCI  27
OSAGE BEACH    CLOUDY    32  21  64 VRB7G20   30.23R WCI  26
SPRINGFIELD    CLEAR     33  23  66 N16       30.22R WCI  23
BRANSON        CLEAR     37  23  56 NW12G20   30.22R WCI  30
JOPLIN         CLEAR     34  21  59 NW13      30.31R WCI  25
WEST PLAINS    CLOUDY    40  27  59 N10       30.14R WCI  33

$$

IAZ060-094-KSZ022-034>040-054-083-096-NEZ052-066-093-121000-
...KANSAS...SOUTHEAST NEBRASKA AND IOWA...

CITY           SKY/WX    TMP DP  RH WIND       PRES   REMARKS
TOPEKA         CLEAR     29  21  72 NW8       30.35R WCI  21
MANHATTAN      CLEAR     33  24  69 N6        30.39R WCI  28
EMPORIA        CLEAR     31  23  72 NW12      30.35R WCI  22
CHANUTE        CLEAR     35  25  66 N12       30.34R WCI  27
WICHITA        CLEAR     35  28  75 N12       30.38R WCI  27
OMAHA          CLEAR     16   9  74 N7        30.37R WCI   6
LINCOLN        CLEAR     23  14  68 N6        30.40R WCI  16
FALLS CITY     CLEAR     23  15  71 NW13      30.36R WCI  11
LAMONI         CLEAR     18  11  74 NW12      30.27R WCI   5
DES MOINES     CLEAR     17  10  74 NW10      30.28R WCI   5

$$





USA.gov is the U.S. government's official web portal to all federal, state and local government web resources and services.